Hourly Data Report for August 13, 2021

ALGONQUIN PARK EAST GATE
ONTARIO
Current Station Operator: ECCC - MSC

45°32'00.000" N
78°16'00.000" W
397.00 m
6080192
71581
TNK

Download Data

Hourly Data (August 2021)
Hourly Data Report for August 13, 2021
TIME
LST
Temp Definition
°C
Dew Point Definition
°C
Rel Hum Definition
%
Precip. Amount Definition
mm

Wind Dir Definition
10's deg

Wind Spd Definition
km/h
Visibility Definition
km
Stn Press Definition
kPa
Hmdx Definition


Wind Chill Definition


Weather Definition


00:00 16.3 15.9 97 0.0   0   96.73     LegendNANA
01:00 16.0 15.6 98 0.0   0   96.70     LegendNANA
02:00 16.2 15.9 98 0.0   0   96.67     LegendNANA
03:00 16.5 16.2 98 0.0   0   96.63     LegendNANA
04:00 16.8 16.5 98 0.0   0   96.62     LegendNANA
05:00 17.1 16.8 98 0.0   0   96.63     LegendNANA
06:00 17.8 17.5 98 0.0   0   96.69     LegendNANA
07:00 20.0 19.5 97 0.0   0   96.73 27   LegendNANA
08:00 22.6 20.2 87 0.0 19 2   96.75 30   LegendNANA
09:00 23.7 18.7 74 0.0 29 4   96.77 30   LegendNANA
10:00 24.4 17.7 66 0.0 33 4   96.77 30   LegendNANA
11:00 24.7 17.1 63 0.0 27 5   96.78 30   LegendNANA
12:00 26.7 15.8 51 0.0 26 6   96.79 31   LegendNANA
13:00 26.1 16.7 56 0.0 25 5   96.79 31   LegendNANA
14:00 26.6 14.4 47 0.0 25 8   96.79 30   LegendNANA
15:00 26.7 15.1 49 0.0 26 7   96.77 31   LegendNANA
16:00 26.4 13.7 46 0.0 27 5   96.74 30   LegendNANA
17:00 24.9 13.7 50 0.0 28 5   96.75 28   LegendNANA
18:00 23.4 13.5 54 0.0 28 5   96.77 26   LegendNANA
19:00 20.9 14.1 65 0.0 28 3   96.82     LegendNANA
20:00 17.2 13.7 80 0.0   0   96.92     LegendNANA
21:00 14.9 12.4 85 0.0   0   96.96     LegendNANA
22:00 13.4 11.3 87 0.0 24 2   96.99     LegendNANA
23:00 12.5 10.7 88 0.0   0   97.05     LegendNANA

Notes on Data Quality.

Legend

  • E = Estimated
  • M = Missing
  • NA = Not Available*
  • [empty] = Indicates an unobserved value
Date modified: